#timestamp,LO_Frequency,Hit 
1505854815.3,286046998.8,N
1505854835.1,286047001.4,N
1505854855.9,286047005.3,N
1505854875.7,286047008.7,N
1505854895.5,286047008.1,N
1505854915.4,286047007.9,N
1505854935.2,286047008.9,N
1505854955.0,286047008.9,N
1505854955.9,286047008.9,N
1505854975.8,286047009.2,N
1505854995.6,286047008.8,N
1505855015.4,286047007.1,N
1505855035.3,286047004.6,N
1505855055.1,286047000.2,N
1505855056.0,286047000.2,N
1505855075.8,286047000.0,N
1505855095.7,286047002.0,N
1505855115.5,286047006.9,N
1505855135.3,286047010.7,N
1505855155.1,286047010.0,N
1505855175.9,286047007.9,N
1505855195.7,286047009.4,N
1505855215.5,286047008.4,N
1505855235.4,286047004.9,N
1505855255.2,286047008.7,N
1505855275.0,286047009.1,N
1505855275.9,286047009.1,N
1505855295.8,286047009.5,N
1505855315.6,286047010.5,N
1505855335.4,286047010.8,N
1505855355.3,286047011.8,P
1505855375.1,286047001.6,N
1505855395.8,286047003.8,N
1505855415.7,286047002.4,N
1505855435.5,286047006.0,N
1505855455.3,286047003.5,N
1505855475.2,286047001.5,N
1505855495.9,286047001.5,N
1505855515.7,286047004.0,N
1505855535.6,286047002.0,N
1505855555.4,286047002.7,N
1505855575.2,286047000.7,N
1505855595.1,286047002.0,N
1505855596.0,286047002.0,N
1505855615.8,286047004.4,N
1505855635.6,286047003.8,N
1505855655.5,286047003.9,N
1505855675.3,286047000.6,N
1505855695.1,286047001.9,N
1505855715.8,286047002.4,N
1505855735.7,286047000.8,N
1505855755.5,286046999.7,N
1505855775.3,286047001.8,N
1505855795.2,286047001.7,N
1505855815.9,286047004.9,N
1505855835.7,286047005.9,N
1505855855.6,286047004.5,N
1505855875.4,286047005.0,N
1505855895.2,286047007.4,P
1505855915.1,286047003.1,N
1505855916.0,286047003.1,N
1505855935.8,286047000.2,N
1505855955.6,286047001.8,N
1505855975.5,286046998.6,N
1505855995.3,286046996.5,N
1505856015.1,286046998.9,N
1505856035.9,286046998.3,N
1505856055.7,286046999.3,N
1505856075.5,286046998.9,N
1505856095.3,286046998.5,N
1505856115.2,286046998.6,N
1505856135.0,286046997.1,N
1505856135.9,286046997.1,N
1505856155.7,286046998.0,N
1505856175.6,286046995.8,N
1505856195.4,286046994.3,N
1505856215.2,286046995.9,N
1505856235.1,286046995.2,N
1505856236.0,286046995.2,N
1505856255.8,286046995.8,N
1505856275.6,286046995.1,N
1505856295.5,286046996.5,N
1505856315.3,286046997.3,N
1505856335.1,286047001.1,N
1505856355.9,286047001.0,N
1505856375.7,286047002.3,N
1505856395.5,286047002.7,N
1505856415.3,286046996.5,N
1505856435.2,286046999.1,N
1505856455.0,286046997.0,N
1505856455.9,286046997.0,N
1505856475.7,286046999.5,N
1505856495.6,286046998.2,N
1505856515.4,286046997.1,N
1505856535.2,286046994.1,N
1505856555.1,286046995.2,N
1505856556.0,286046995.2,N
1505856575.8,286046998.7,N
1505856595.6,286046996.6,N
1505856615.5,286046995.7,N
1505856635.3,286046994.2,N
1505856655.1,286046992.6,P
1505856675.9,286046994.2,N
1505856695.7,286046996.1,N
1505856715.5,286047000.5,N
1505856735.4,286047000.1,N
1505856755.2,286047003.2,N
1505856775.0,286047007.5,N
1505856775.9,286047007.5,N
1505856795.8,286047004.5,N
1505856815.6,286047007.3,N
1505856835.4,286047007.5,N
1505856855.3,286047005.6,N
1505856875.1,286047004.2,N
1505856876.0,286047004.2,N
1505856895.8,286047005.3,N
1505856915.7,286047002.1,N
1505856935.5,286047004.0,N
1505856955.3,286047002.7,N
1505856975.2,286047003.4,N
1505856995.9,286047006.9,N
1505857015.7,286047006.8,N
1505857035.5,286047007.6,N
1505857055.4,286047007.2,N
1505857075.2,286047008.0,N
1505857095.0,286047007.0,N
1505857095.9,286047007.0,N
1505857115.8,286047007.7,N
1505857135.6,286047012.3,N
1505857155.4,286047010.6,N
1505857175.3,286047009.9,N
1505857195.1,286047011.1,N
1505857196.0,286047011.1,N
1505857215.8,286047016.3,P
1505857235.7,286047010.2,N
1505857255.5,286047015.3,P
1505857275.3,286047012.7,P
1505857295.2,286046998.3,P
1505857315.0,286046995.1,N
1505857315.9,286046995.1,N
1505857335.7,286046997.1,N
1505857355.6,286046999.0,N
1505857375.4,286046991.7,N
1505857395.2,286046993.3,N
1505857415.1,286046990.7,N
1505857416.0,286046990.7,N
1505857435.8,286046988.7,N
1505857455.6,286046987.3,N
1505857475.5,286046989.7,N
1505857495.3,286046990.8,N
1505857515.1,286046988.8,N
1505857535.9,286046988.6,N
1505857555.7,286046987.7,N
1505857575.5,286046987.1,N
1505857595.3,286046989.1,N
1505857615.2,286046986.9,N
1505857635.0,286046989.2,N
1505857635.9,286046989.2,N
1505857655.7,286046988.7,N
1505857675.6,286046992.6,N
1505857695.4,286046992.4,N
1505857715.2,286046992.9,N
1505857735.1,286046992.3,N
1505857736.0,286046992.3,N
1505857755.8,286046992.3,N
1505857775.6,286046999.3,N
1505857795.5,286046999.2,N
1505857815.3,286047000.0,N
1505857835.1,286046996.9,N
1505857855.9,286046996.2,N
1505857875.7,286046998.5,N
1505857895.5,286046999.8,N
1505857915.4,286047001.2,N
1505857935.2,286046997.2,N
1505857955.0,286046999.8,N
1505857955.9,286046999.8,N
1505857975.7,286046999.9,N
1505857995.6,286046999.6,N
1505858015.4,286046995.4,N
1505858035.2,286046996.2,N
1505858055.1,286046995.4,N
1505858056.0,286046995.4,N
1505858075.8,286046994.5,N
1505858095.6,286046992.1,N
1505858115.5,286046990.6,N
1505858135.3,286046988.5,N
1505858155.1,286046989.7,N
1505858175.9,286046989.1,N
1505858195.7,286046987.0,P
1505858215.5,286046994.6,N
1505858235.4,286046996.3,N
1505858255.2,286046994.9,N
1505858275.0,286046994.7,N
1505858275.9,286046994.7,N
1505858295.8,286046997.4,N
1505858315.6,286046999.0,N
1505858335.4,286046999.7,N
1505858355.3,286047001.3,N
1505858375.1,286047002.4,N
1505858376.0,286047002.4,N
1505858395.8,286047006.4,N
